• In Hungary
  • List of Countries
  • For 7 days
  • Water Temperature
  • Satellite Maps
  • Weather Map
  • News
  • Weather Widgets
  • user-avatar
    Login

    Hourly Weather Chuvylyne

    Today, 14 December, Thursday

    Time Temperature Precipitation Wind Pressure Humidity
    00:00 +5°C° 0 mm 3 mps 747 mmHg 95%
    01:00 +5°C° 0 mm 3 mps 747 mmHg 95%
    02:00 +6°C° 0 mm 4 mps 746 mmHg 96%
    03:00 +6°C° 0 mm 4 mps 746 mmHg 95%
    04:00 +6°C° 0 mm 4 mps 746 mmHg 94%
    05:00 +6°C° 0 mm 4 mps 746 mmHg 93%
    06:00 +6°C° 0 mm 4 mps 745 mmHg 93%
    07:00 +6°C° 0 mm 4 mps 745 mmHg 93%
    08:00 +6°C° 0 mm 4 mps 745 mmHg 93%
    09:00 +6°C° 0.1 mm 4 mps 745 mmHg 91%
    10:00 +7°C° 0.1 mm 5 mps 745 mmHg 89%
    11:00 +7°C° 0.1 mm 5 mps 745 mmHg 87%
    12:00 +7°C° 0.2 mm 5 mps 745 mmHg 87%
    13:00 +8°C° 0.2 mm 5 mps 745 mmHg 87%
    14:00 +8°C° 0.2 mm 5 mps 745 mmHg 87%
    15:00 +8°C° 0.2 mm 4 mps 745 mmHg 88%
    16:00 +7°C° 0.2 mm 4 mps 745 mmHg 90%
    17:00 +7°C° 0.2 mm 4 mps 745 mmHg 91%
    18:00 +7°C° 0 mm 4 mps 745 mmHg 92%
    19:00 +8°C° 0 mm 3 mps 745 mmHg 92%
    20:00 +7°C° 0 mm 3 mps 745 mmHg 92%
    21:00 +7°C° 0 mm 3 mps 746 mmHg 92%
    22:00 +7°C° 0 mm 3 mps 746 mmHg 91%
    23:00 +7°C° 0 mm 3 mps 746 mmHg 91%

    Tomorrow, 15 December, Friday

    Time Temperature Precipitation Wind Pressure Humidity
    00:00 +7°C° 0 mm 3 mps 746 mmHg 90%
    01:00 +7°C° 0 mm 2 mps 746 mmHg 89%
    02:00 +6°C° 0 mm 2 mps 746 mmHg 88%
    03:00 +6°C° 0 mm 2 mps 746 mmHg 88%
    04:00 +5°C° 0 mm 3 mps 746 mmHg 87%
    05:00 +5°C° 0 mm 3 mps 746 mmHg 86%
    06:00 +5°C° 0 mm 3 mps 746 mmHg 86%
    07:00 +5°C° 0 mm 3 mps 746 mmHg 87%
    08:00 +5°C° 0 mm 3 mps 747 mmHg 87%
    09:00 +7°C° 0 mm 3 mps 747 mmHg 85%
    10:00 +6°C° 0 mm 4 mps 747 mmHg 83%
    11:00 +7°C° 0 mm 5 mps 747 mmHg 80%
    12:00 +8°C° 0 mm 5 mps 747 mmHg 78%
    13:00 +8°C° 0 mm 5 mps 747 mmHg 75%
    14:00 +9°C° 0 mm 5 mps 747 mmHg 72%
    15:00 +8°C° 0 mm 5 mps 747 mmHg 73%
    16:00 +8°C° 0 mm 5 mps 747 mmHg 74%
    17:00 +8°C° 0 mm 5 mps 747 mmHg 75%
    18:00 +8°C° 0 mm 5 mps 747 mmHg 77%
    19:00 +7°C° 0 mm 5 mps 747 mmHg 79%
    20:00 +7°C° 0 mm 5 mps 748 mmHg 81%
    21:00 +6°C° 0 mm 5 mps 748 mmHg 85%
    22:00 +6°C° 0 mm 5 mps 748 mmHg 89%
    23:00 +6°C° 0 mm 5 mps 748 mmHg 92%

    Day after tomorrow, 16 December, Saturday

    Time Temperature Precipitation Wind Pressure Humidity
    00:00 +6°C° 0 mm 5 mps 748 mmHg 93%
    01:00 +6°C° 0 mm 5 mps 748 mmHg 93%
    02:00 +6°C° 0 mm 5 mps 748 mmHg 93%
    03:00 +6°C° 0 mm 5 mps 748 mmHg 93%
    04:00 +6°C° 0 mm 5 mps 748 mmHg 92%
    05:00 +5°C° 0 mm 6 mps 748 mmHg 91%
    06:00 +7°C° 0 mm 6 mps 747 mmHg 89%
    07:00 +7°C° 0 mm 6 mps 747 mmHg 86%
    08:00 +6°C° 0 mm 7 mps 747 mmHg 84%
    09:00 +8°C° 0.1 mm 7 mps 747 mmHg 78%
    10:00 +9°C° 0.1 mm 8 mps 747 mmHg 72%
    11:00 +10°C° 0.1 mm 9 mps 746 mmHg 67%
    12:00 +10°C° 0 mm 9 mps 746 mmHg 62%
    13:00 +11°C° 0 mm 8 mps 746 mmHg 57%
    14:00 +12°C° 0 mm 8 mps 745 mmHg 52%
    15:00 +11°C° 0 mm 8 mps 745 mmHg 57%
    16:00 +11°C° 0 mm 8 mps 745 mmHg 62%
    17:00 +10°C° 0 mm 7 mps 745 mmHg 67%
    18:00 +10°C° 0 mm 7 mps 745 mmHg 72%
    19:00 +9°C° 0 mm 7 mps 745 mmHg 76%
    20:00 +9°C° 0 mm 7 mps 745 mmHg 81%
    21:00 +9°C° 0 mm 7 mps 746 mmHg 83%
    22:00 +9°C° 0 mm 7 mps 746 mmHg 85%
    23:00 +9°C° 0 mm 7 mps 746 mmHg 87%

    17 December, Sunday

    Time Temperature Precipitation Wind Pressure Humidity
    00:00 +9°C° 0 mm 7 mps 746 mmHg 86%
    01:00 +9°C° 0 mm 7 mps 746 mmHg 85%
    02:00 +9°C° 0 mm 7 mps 746 mmHg 85%
    03:00 +9°C° 0.2 mm 7 mps 745 mmHg 85%
    04:00 +9°C° 0.2 mm 7 mps 745 mmHg 85%
    05:00 +9°C° 0.2 mm 7 mps 745 mmHg 85%
    06:00 +9°C° 0.5 mm 7 mps 745 mmHg 85%
    07:00 +9°C° 0.5 mm 7 mps 745 mmHg 86%
    08:00 +9°C° 0.5 mm 7 mps 745 mmHg 87%
    09:00 +9°C° 0.2 mm 7 mps 745 mmHg 84%
    10:00 +9°C° 0.2 mm 7 mps 745 mmHg 81%
    11:00 +9°C° 0.2 mm 7 mps 744 mmHg 79%
    12:00 +10°C° 0.2 mm 7 mps 744 mmHg 74%
    13:00 +10°C° 0.2 mm 8 mps 743 mmHg 68%
    14:00 +10°C° 0.2 mm 8 mps 743 mmHg 63%
    15:00 +10°C° 0.1 mm 8 mps 742 mmHg 66%
    16:00 +10°C° 0.1 mm 8 mps 742 mmHg 68%
    17:00 +8°C° 0.1 mm 9 mps 741 mmHg 70%
    18:00 +8°C° 0.4 mm 9 mps 741 mmHg 73%
    19:00 +8°C° 0.4 mm 9 mps 741 mmHg 76%
    20:00 +8°C° 0.4 mm 9 mps 741 mmHg 79%
    21:00 +8°C° 0.2 mm 10 mps 741 mmHg 77%
    22:00 +7°C° 0.2 mm 10 mps 741 mmHg 76%
    23:00 +7°C° 0.2 mm 11 mps 742 mmHg 75%

    18 December, Monday

    Time Temperature Precipitation Wind Pressure Humidity
    00:00 +6°C° 0 mm 10 mps 743 mmHg 73%
    01:00 +3°C° 0 mm 10 mps 744 mmHg 71%
    02:00 +2°C° 0 mm 9 mps 745 mmHg 69%
    03:00 +2°C° 0 mm 8 mps 746 mmHg 69%
    04:00 +2°C° 0 mm 7 mps 747 mmHg 68%
    05:00 0°C° 0 mm 7 mps 748 mmHg 68%
    06:00 +1°C° 0 mm 6 mps 749 mmHg 68%
    07:00 +1°C° 0 mm 5 mps 750 mmHg 67%
    08:00 +1°C° 0 mm 5 mps 750 mmHg 67%
    09:00 +1°C° 0 mm 4 mps 751 mmHg 66%
    10:00 +1°C° 0 mm 4 mps 751 mmHg 64%
    11:00 +1°C° 0 mm 4 mps 752 mmHg 63%
    12:00 +2°C° 0 mm 3 mps 752 mmHg 62%
    13:00 +3°C° 0 mm 3 mps 752 mmHg 61%
    14:00 +3°C° 0 mm 3 mps 752 mmHg 60%
    15:00 +3°C° 0 mm 2 mps 752 mmHg 62%
    16:00 +2°C° 0 mm 2 mps 752 mmHg 65%
    17:00 +2°C° 0 mm 2 mps 752 mmHg 68%
    18:00 +2°C° 0 mm 2 mps 753 mmHg 69%
    19:00 +1°C° 0 mm 2 mps 753 mmHg 70%
    20:00 +2°C° 0 mm 1 mps 753 mmHg 71%
    21:00 +1°C° 0 mm 2 mps 753 mmHg 72%
    22:00 -1°C° 0 mm 2 mps 753 mmHg 73%
    23:00 -1°C° 0 mm 2 mps 753 mmHg 73%

    19 December, Tuesday

    Time Temperature Precipitation Wind Pressure Humidity
    00:00 -1°C° 0 mm 2 mps 754 mmHg 73%
    01:00 -1°C° 0 mm 2 mps 754 mmHg 73%
    02:00 -1°C° 0 mm 2 mps 754 mmHg 73%
    03:00 -1°C° 0 mm 2 mps 754 mmHg 74%
    04:00 -2°C° 0 mm 2 mps 754 mmHg 74%
    05:00 -2°C° 0 mm 2 mps 754 mmHg 74%
    06:00 -2°C° 0 mm 2 mps 755 mmHg 75%
    07:00 -2°C° 0 mm 2 mps 755 mmHg 76%
    08:00 -2°C° 0 mm 2 mps 755 mmHg 77%
    09:00 -1°C° 0 mm 2 mps 755 mmHg 73%
    10:00 -1°C° 0 mm 2 mps 756 mmHg 68%
    11:00 +1°C° 0 mm 2 mps 756 mmHg 63%
    12:00 0°C° 0 mm 3 mps 756 mmHg 62%
    13:00 +1°C° 0 mm 3 mps 756 mmHg 61%
    14:00 +1°C° 0 mm 3 mps 756 mmHg 60%
    15:00 0°C° 0 mm 3 mps 756 mmHg 65%
    16:00 -1°C° 0 mm 2 mps 756 mmHg 69%
    17:00 -2°C° 0 mm 2 mps 756 mmHg 74%
    18:00 -2°C° 0 mm 2 mps 757 mmHg 75%
    19:00 -2°C° 0 mm 2 mps 757 mmHg 76%
    20:00 -2°C° 0 mm 2 mps 757 mmHg 77%
    21:00 0°C° 0 mm 1 mps 757 mmHg 77%
    22:00 0°C° 0 mm 1 mps 758 mmHg 77%
    23:00 -1°C° 0 mm 1 mps 758 mmHg 77%
    Show more